Regional Weather Roundup
Issued by NWS

Home | Current Version | Previous Version | Text Only | Print | Product List | Glossary Off
Versions: 1 2 3 4 5 6 7 8 9 10 11 12 13 14 15 16 17 18 19 20 21 22 23 24 25 26 27 28 29 30 31 32 33 34 35 36 37 38 39 40 41 42 43 44 45 46 47 48 49 50

000
ASUS44 KMEG 301510
RWRTN
TENNESSEE HOURLY STATE WEATHER ROUNDUP
NATIONAL WEATHER SERVICE MEMPHIS TN
1000 AM CDT SUN AUG 30 2015

TNZ002-004-019-021-049-052-054-088>092-301600-
WEST TENNESSEE

CITY           SKY/WX    TMP DP  RH WIND       PRES   REMARKS
MEMPHIS INTL   CLOUDY    76  69  79 SE3       30.07R
NWS MEMPHIS      N/A     73 N/A N/A MISG        N/A
JACKSON        MOSUNNY   75  68  78 S7        30.10R
DYERSBURG      CLOUDY   N/A N/A N/A MISG        N/A
UNION CITY     MOSUNNY   75  73  94 S8        30.07F
PARIS          SUNNY     73  66  78 S8        30.11S
LEXINGTON      SUNNY     77  66  69 SW8       30.11R
$$

TNZ008-025-027-028-033-062-065-066-301600-
NORTH MIDDLE TENNESSEE

CITY           SKY/WX    TMP DP  RH WIND       PRES   REMARKS
NASHVILLE      CLOUDY    76  67  73 S6        30.15R
CLARKSVILLE    MOSUNNY   77  66  68 VRB7      30.12R
SMYRNA         CLOUDY    76  70  82 S5        30.16R
COOKEVILLE     SUNNY     75  68  78 CALM      30.17R
CROSSVILLE     CLOUDY    75  62  64 VRB5      30.21R
$$

TNZ061-075-076-078-094-096-097-301600-
SOUTH MIDDLE TENNESSEE

CITY           SKY/WX    TMP DP  RH WIND       PRES   REMARKS
FAYETTEVILLE   MOSUNNY   70  64  83 CALM      30.16R
TULLAHOMA      MOSUNNY   70  63  78 SE5       30.18R
WINCHESTER     PTSUNNY   72  64  78 NE3       30.16R
MCMINNVILLE    SUNNY     73  70  88 CALM      30.17R
COLUMBIA       SUNNY     75  73  94 S7        30.13R
SHELBYVILLE    MOSUNNY   73  66  78 S6        30.17R
$$

TNZ017-018-042-046-047-301600-
NORTHEAST TENNESSEE

CITY           SKY/WX    TMP DP  RH WIND       PRES   REMARKS
TRI CITIES     CLOUDY    73  64  73 CALM      30.22R
ELIZABETHTON   SUNNY     72  63  73 CALM      30.22R
$$

TNZ012-013-036-069-073-074-301600-
CENTRAL EAST TENNESSEE

CITY           SKY/WX    TMP DP  RH WIND       PRES   REMARKS
KNOXVILLE      CLOUDY    71  70  96 CALM      30.16R
OAK RIDGE      CLOUDY    75  67  76 CALM      30.19R
GATLINBURG     MOSUNNY   75  63  64 CALM      30.18R
MORRISTOWN     SUNNY     73  64  73 CALM      30.21R
$$

TNZ083-085-099-301600-
SOUTHEAST TENNESSEE

CITY           SKY/WX    TMP DP  RH WIND       PRES   REMARKS
CHATTANOOGA    CLOUDY    74  66  76 NE6       30.17R
$$

SKY/WX REPORTED AS FAIR MEANS FEW OR NO CLOUDS BELOW
12 THOUSAND FEET.



USA.gov is the U.S. government's official web portal to all federal, state and local government web resources and services.